PST,Max TemperatureF,Mean TemperatureF,Min TemperatureF,Max Dew PointF,MeanDew PointF,Min DewpointF,Max Humidity, Mean Humidity, Min Humidity, Max Sea Level PressureIn, Mean Sea Level PressureIn, Min Sea Level PressureIn, Max VisibilityMiles, Mean VisibilityMiles, Min VisibilityMiles, Max Wind SpeedMPH, Mean Wind SpeedMPH, Max Gust SpeedMPH,PrecipitationIn, CloudCover, Events, WindDirDegrees
2012-11-1,64,50,37,46,37,25,93,64,37,30.09,30.05,30.02,10,6,4,18,5,23,0.00,1,,302
2012-11-2,59,50,41,48,45,41,100,84,51,30.11,30.08,30.04,9,4,0,17,7,22,0.00,5,Fog,304
2012-11-3,71,52,32,45,33,19,100,67,14,30.24,30.16,30.11,10,7,0,14,4,18,0.00,1,Fog,120
2012-11-4,75,54,32,43,26,18,87,46,11,30.30,30.27,30.23,10,10,5,16,4,24,0.00,0,,115
2012-11-5,77,60,44,25,21,16,40,23,12,30.31,30.27,30.23,10,10,10,16,8,25,0.00,0,,118
2012-11-6,77,59,41,32,27,23,53,34,16,30.26,30.21,30.16,10,10,9,14,5,21,0.00,0,,118
2012-11-7,73,56,39,36,29,23,61,40,16,30.19,30.10,30.01,10,10,7,20,5,23,0.00,0,,308
2012-11-8,59,50,41,43,37,28,93,66,43,30.00,29.94,29.86,10,6,2,20,7,25,0.01,3,Rain,302
2012-11-9,41,37,33,37,32,25,100,84,57,29.91,29.87,29.83,10,8,1,20,15,26,0.06,7,Rain,304
2012-11-10,39,32,24,32,25,16,100,73,52,30.17,30.04,29.90,10,10,5,24,14,32,0.01,4,Rain,306
2012-11-11,46,32,17,21,14,5,86,48,27,30.37,30.29,30.17,10,10,9,21,8,25,0.00,0,,106
2012-11-12,55,42,26,23,10,5,52,33,14,30.37,30.32,30.24,10,10,8,16,10,21,0.00,0,,106
2012-11-13,62,43,24,10,4,0,54,22,8,30.30,30.22,30.17,10,10,8,17,7,22,0.00,0,,111
2012-11-14,62,44,26,10,9,5,40,22,12,30.21,30.16,30.13,10,10,9,18,9,24,0.00,0,,113
2012-11-15,57,52,46,36,18,9,66,29,16,30.17,30.12,30.08,10,10,6,21,11,30,0.02,3,Rain,107
2012-11-16,59,50,42,46,36,25,93,60,37,30.12,30.08,30.03,10,10,3,18,8,24,0.01,6,Rain,95
2012-11-17,59,50,42,45,42,37,93,74,51,30.12,30.06,30.01,10,10,7,16,6,22,0.00,5,Rain,258
2012-11-18,55,48,41,46,43,37,100,83,54,30.20,30.14,30.09,10,10,5,20,10,25,0.00,5,,302
2012-11-19,57,45,33,45,38,28,100,77,38,30.27,30.24,30.19,10,9,2,16,7,18,0.00,2,,307
2012-11-20,60,46,32,37,33,27,93,61,34,30.23,30.18,30.13,10,10,7,16,6,21,0.00,0,,319
2012-11-21,59,49,39,41,37,30,81,67,39,30.19,30.16,30.13,10,10,8,20,9,28,0.00,1,,299
2012-11-22,66,52,39,45,33,25,100,52,23,30.29,30.22,30.18,10,8,1,17,9,21,0.00,1,,127
2012-11-23,68,55,42,25,21,18,46,27,15,30.33,30.28,30.25,10,10,8,20,12,26,0.00,0,,118
2012-11-24,69,51,33,32,20,18,52,34,15,30.26,30.17,30.09,10,10,8,17,7,21,0.00,0,,110
2012-11-25,68,48,28,41,25,16,93,51,16,30.08,30.03,29.97,10,8,3,14,4,17,0.00,0,,330
2012-11-26,64,46,28,23,19,16,64,36,16,30.18,30.11,30.04,10,10,8,16,7,22,0.00,0,,114
2012-11-27,64,54,44,25,23,19,40,31,21,30.23,30.17,30.13,10,10,8,16,10,25,0.00,2,,127
2012-11-28,66,54,42,43,32,21,81,46,20,30.17,30.13,30.09,10,10,3,22,9,30,0.02,3,Rain,158
2012-11-29,57,49,37,48,45,37,100,83,63,30.20,30.17,30.14,10,8,2,20,6,22,0.00,6,Rain,313
2012-11-30,62,48,35,46,40,28,100,77,27,30.15,30.12,30.08,10,9,3,18,6,24,0.00,3,,297